カタログに戻る

ONEWEB-0237

運用中通信PO
NORAD 48770·PAYLOAD·🇬🇧 United Kingdom

打ち上げ May 28, 2021 から Vostochny Cosmodrome

Loading…

次のパス (今後24時間)

TLE

最新Source: CelesTrak SupGP

元期: Sep 14, 2026, 11:11 UTC

1 48770C 21045D   26257.46646251 -.00000381  00000+0 -10129-2 0  2579
2 48770  87.8980 241.4008 0001707  85.1973  16.7080 13.15549413    14

AllMySatでONEWEB-0237をリアルタイム追跡

Download on the App Store